Regional Weather Roundup
Issued by NWS

Home | Current Version | Previous Version | Text Only | Print | Product List | Glossary Off
Versions: 1 2 3 4 5 6 7 8 9 10 11 12 13 14 15 16 17 18 19 20 21 22 23 24 25 26 27 28 29 30 31 32 33 34 35 36 37 38 39 40 41 42 43 44 45 46 47 48 49 50

000
ASUS43 KLSX 080410
RWRMO

WEATHER SUMMARY FOR MISSOURI
NATIONAL WEATHER SERVICE SPRINGFIELD MO
1000 PM CST WED DEC 07 2016

NOTE: "FAIR" INDICATES FEW OR NO CLOUDS BELOW 12,000 FEET WITH NO
       SIGNIFICANT WEATHER AND/OR OBSTRUCTIONS TO VISIBILITY.
       CURRENT SKY AND/OR WEATHER CONDITIONS ARE NOT AVAILABLE FOR
       CHILLICOTHE AND FARMINGTON.

MOZ001>031-035>038-043-044-053-054-080500-
...NORTHERN AND WESTERN MISSOURI...

CITY           SKY/WX    TMP DP  RH WIND       PRES   REMARKS
KANSAS CTY INT CLEAR     19   9  65 NW7       30.44R WCI  10
KANSAS C DTWN  CLEAR     23  11  60 W6        30.46R WCI  16
LEE`S SUMMIT   CLEAR     21  10  62 NW8       30.44R WCI  11
ST JOSEPH      CLEAR     19  10  68 W9        30.46R WCI   8
CHILLICOTHE      N/A     21  10  62 W5        30.43R WCI  15
KIRKSVILLE     CLEAR     20  10  65 W12       30.36R WCI   8

$$
MOZ066>068-077>081-088>096-101>105-080500-
...SOUTHWEST MISSOURI...

CITY           SKY/WX    TMP DP  RH WIND       PRES   REMARKS
SPRINGFIELD    CLOUDY    28  25  88 N14       30.38R WCI  17
JOPLIN         CLOUDY    25  22  88 N8        30.46R WCI  16
BRANSON        CLOUDY    30  25  80 N12       30.37R WCI  21

$$
MOZ032>034-039>042-045>050-055>058-069>072-080500-
...CENTRAL MISSOURI...

CITY           SKY/WX    TMP DP  RH WIND       PRES   REMARKS
COLUMBIA       CLEAR     25  13  60 NW14      30.38R WCI  13
JEFFERSON CITY CLEAR     27  15  61 NW9G21    30.41R WCI  18
ROLLA          PTCLDY    26  21  81 NW10G22   30.35R WCI  16
SEDALIA        CLEAR     23  13  65 NW10      30.43R WCI  12
WHITEMAN AFB   PTCLDY    22  15  73 NW8       30.43R WCI  13
WARRENSBURG    PTCLDY    21  14  73 W6        30.45R WCI  14
OSAGE BEACH    PTCLDY    26  20  77 NW8       30.41R WCI  18

$$
MOZ051-052-059>065-080500-
...EAST CENTRAL MISSOURI...

CITY           SKY/WX    TMP DP  RH WIND       PRES   REMARKS
ST LOUIS INTL  PTCLDY    31  17  56 NW9       30.33R WCI  23
SPIRIT OF STL  PTCLDY    30  17  58 W13       30.35R WCI  20
ST CHARLES     CLEAR     30  18  60 W17       30.34R WCI  18

$$
MOZ072>076-082>087-097>100-106>115-080500-
...SOUTH CENTRAL AND SOUTHEAST MISSOURI...

CITY           SKY/WX    TMP DP  RH WIND       PRES   REMARKS
CAPE GIRARDEAU CLOUDY    36  23  59 NW7       30.31R
FARMINGTON     MIX PCPN  32  22  66 NW10G16   30.32R WCI  24
POPLAR BLUFF   CLOUDY    38  22  52 N8        30.32R
WEST PLAINS    CLOUDY    32  22  66 N6        30.34R WCI  26

$$




USA.gov is the U.S. government's official web portal to all federal, state and local government web resources and services.